Regional Weather Roundup
Issued by NWS

Home | Current Version | Previous Version | Text Only | Print | Product List | Glossary Off
Versions: 1 2 3 4 5 6 7 8 9 10 11 12 13 14 15 16 17 18 19 20 21 22 23 24 25 26 27 28 29 30 31 32 33 34 35 36 37 38 39 40 41 42 43 44 45 46 47 48 49 50

000
ASUS43 KLOT 021510
RWRIL

ILLINOIS REGIONAL WEATHER ROUNDUP
NATIONAL WEATHER SERVICE CHICAGO/ROMEOVILLE IL
900 AM CST MON MAR 02 2015

NOTE: "FAIR" INDICATES FEW OR NO CLOUDS BELOW 12,000 FEET WITH NO
SIGNIFICANT WEATHER AND/OR OBSTRUCTIONS TO VISIBILITY.

* THESE STATIONS ARE NOT UNDER NWS QUALITY CONTROL. THEY ALSO MAY NOT
  REPORT WEATHER SUCH AS PRECIPITATION OR FOG.

ILZ001-002-007-009-015-016-024-021600-
NORTHWEST ILLINOIS

CITY           SKY/WX    TMP DP  RH WIND       PRES   REMARKS
MOLINE         SUNNY     22  11  62 N6        30.53F WCI  14
STERLING*      SUNNY      9   7  92 CALM      30.53R
SAVANNA*       SUNNY     11   8  86 CALM      30.54S
$$

ILZ003-004-008-010-011-017-018-021600-
NORTH CENTRAL ILLINOIS

CITY           SKY/WX    TMP DP  RH WIND       PRES   REMARKS
ROCKFORD       MOSUNNY   15   9  76 CALM      30.53R
FREEPORT*      SUNNY     13   8  81 W5        30.53S WCI   5
ROCHELLE*      SUNNY      8   5  87 CALM      30.52S
DE KALB*       SUNNY     13   8  79 NW8       30.51R WCI   2
PERU*          SUNNY     15  10  81 W5        30.53S WCI   7
$$

ILZ005-006-012>014-019>023-021600-
NORTHEAST ILLINOIS

CITY           SKY/WX    TMP DP  RH WIND       PRES   REMARKS
CHICAGO-OHARE  MOSUNNY   20  11  68 N9        30.50R WCI   9
CHICAGO-MIDWAY MOSUNNY   24  13  62 NW12      30.51R WCI  13
AURORA         SUNNY     11   5  77 NW9       30.52R WCI  -2
LANSING*       SUNNY     20  12  72 NW5       30.52R WCI  13
JOLIET*        SUNNY     17  10  74 N8        30.53R WCI   6
WAUKEGAN       SUNNY     20  10  65 W9        30.49R WCI   9
DUPAGE AIRPORT SUNNY     20  11  68 N8        30.50R WCI  10
KANKAKEE*      SUNNY     11   8  86 SW6       30.54R WCI   2
WHEELING       SUNNY     21  10  62 NW10G17   30.52R WCI  10
MORRIS*        SUNNY      9   6  84 CALM      30.52R
ROMEOVILLE*    SUNNY     17  10  75 N7        30.52R WCI   7
NORTHERLY ISL    N/A     25  13  60 W6          N/A  WCI  18
$$

LMZ740>746-021600-
SOUTHERN LAKE MICHIGAN

STATION/POSITION SKY/WX   TEMP    WIND        PRES    VSBY  WAVE
                          AIR SEA DIR/SP/G                  HT/PER
                          (F)     (DEG/KT/KT) (MB)    (MI)  (FT/S)
WAUKEGAN HARBOR            20     290/ 12/ 16   N/A
HARRISON CRIB              21     300/ 12/ 14   N/A
BURNHAM HARBOR             26     310/  5/ 11   N/A
CALUMET HARBOR             23     300/  7/  9 1031.7S
MICHIGAN CITY              18     220/  8/  9   N/A
$$

ILZ025>027-034>036-040-047-049-050-058-095>099-021600-
WEST-CENTRAL ILLINOIS

CITY           SKY/WX    TMP DP  RH WIND       PRES   REMARKS
QUINCY         MOSUNNY   23  16  74 N3        30.54R
GALESBURG*     SUNNY     15  14  92 CALM      30.53S
MACOMB*        MOSUNNY   14  12  92 CALM      30.56F
JACKSONVILLE*  MOSUNNY   19  16  88 CALM      30.55S FOG
PITTSFIELD*    MOSUNNY   19  17  91 W3        30.55S
$$

ILZ028>032-037-038-041>044-048-051>054-059>061-021600-
CENTRAL ILLINOIS

CITY           SKY/WX    TMP DP  RH WIND       PRES   REMARKS
PONTIAC        SUNNY     14  11  90 CALM      30.53S
BLOOMINGTON    SUNNY     22  15  74 N8        30.52S WCI  13
DECATUR        SUNNY     25  17  72 N10       30.54R WCI  15
PEORIA         SUNNY     25  14  63 VRB5      30.55R WCI  19
LACON*         SUNNY     17  10  71 CALM      30.53S
LINCOLN*       SUNNY     12   9  85 CALM      30.58R FOG
SPRINGFIELD    SUNNY     23  15  71 NW7       30.56R HAZE    WCI  15
TAYLORVILLE    MOSUNNY   19  18  93 CALM      30.56R FOG
$$

ILZ033-039-045-046-055>057-062-063-021600-
EAST-CENTRAL ILLINOIS

CITY           SKY/WX    TMP DP  RH WIND       PRES   REMARKS
CHAMPAIGN      SUNNY     13  11  92 W5        30.52S FOG     WCI   5
DANVILLE*      MOSUNNY   16  10  79 N7        30.50S WCI   6
RANTOUL*       SUNNY     20  13  73 NW10      30.52S WCI   9
MATTOON        MOSUNNY   20  14  77 CALM      30.52R HAZE
PARIS*         MOSUNNY   17  13  85 CALM      30.55S
$$

ILZ079-100>102-021600-
SOUTHWEST ILLINOIS

CITY           SKY/WX    TMP DP  RH WIND       PRES   REMARKS
BELLEVILLE     MOSUNNY   22  22  99 N3        30.55S FOG
CAHOKIA*       MOSUNNY   21  20  96 CALM      30.56S FOG
SPARTA*        FOG       20  18  92 CALM      30.56S VSB 1/4
$$

ILZ064>066-069>071-074>076-080>082-084>086-088>090-092>094-021600-
SOUTH-CENTRAL ILLINOIS

CITY           SKY/WX    TMP DP  RH WIND       PRES   REMARKS
CARBONDALE     MOSUNNY   29  19  66 NE8       30.56R WCI  21
CAIRO*         SUNNY     32  20  62 NE14      30.54F WCI  22
EFFINGHAM*     MOSUNNY   20  17  88 S3        30.58R
MARION         PTSUNNY   30  21  69 NE9       30.56S WCI  22
MT. VERNON     MOSUNNY   19  16  86 NE3       30.56R
CENTRALIA*     FAIR      19  17  89 CALM      30.56R FOG
SALEM*         MOSUNNY  N/A N/A N/A N3        30.56S HAZE
METROPOLIS*    MOSUNNY   31  19  60 NE8       30.53F WCI  24
$$

ILZ067-068-072-073-078-083-087-091-021600-
SOUTHEAST ILLINOIS

CITY           SKY/WX    TMP DP  RH WIND       PRES   REMARKS
LAWRENCEVILLE  MOSUNNY   21  19  92 CALM      30.58R FOG
FLORA*         MOSUNNY   20  18  93 CALM      30.58R FOG
FAIRFIELD*     PTSUNNY   22  20  91 CALM      30.56S
HARRISBURG*    MOSUNNY   29  21  73 E7        30.57S WCI  21
ROBINSON*      MOSUNNY   15  13  95 CALM      30.59R FOG
CARMI*         PTSUNNY   29  24  79 NE9       30.56S WCI  21
$$

ABBREVIATIONS USED IN REMARKS
   TC - TEMPERATURE IN CELSIUS
  WCI - WIND CHILL INDEX
   HX - HEAT INDEX
  VSB - VISIBILITY
$$



USA.gov is the U.S. government's official web portal to all federal, state and local government web resources and services.